GFSNIL_con_mlcape_000.txt.gz
CAPE
0 0 0 0 27 26 24 31 33 24 13 25 63 32 36 36 25 5 1 0 0 0
0 0 0 0 0 0 0 7 10 11 18 14 67 42 28 30 23 12 0 0 0 0
0 0 0 0 0 0 0 0 0 0 0 0 29 38 33 18 3 3 0 0 0 0
0 0 0 0 0 0 0 0 0 0 0 0 0 0 0 0 0 0 0 0 0 0
0 0 0 0 0 0 0 0 0 0 0 0 0 0 0 0 0 0 0 0 0 0
0 0 0 0 0 0 0 0 0 0 0 0 0 0 0 0 0 0 0 0 0 0
0 0 0 0 0 0 0 0 0 0 0 0 0 0 0 0 0 0 0 0 0 0
0 0 0 0 0 0 0 0 0 0 0 0 0 0 0 0 0 0 0 0 0 0
0 0 0 0 0 0 0 0 0 0 0 0 0 0 0 0 0 0 0 0 0 0
0 0 0 0 0 0 0 0 0 0 0 0 0 0 0 0 0 0 0 0 0 0
0 0 0 0 0 0 0 0 0 0 0 0 0 0 0 0 0 0 0 0 0 0
0 0 0 0 0 0 0 0 0 0 0 0 0 0 0 0 0 0 0 0 0 0
0 0 0 0 0 0 0 0 0 0 0 0 0 0 0 0 0 0 0 0 0 0
0 0 0 0 0 0 0 0 0 0 0 0 0 0 0 0 0 0 0 0 0 0

GFSNIL_con_mlcape_003.txt.gz
CAPE
0 0 0 61 14 58 42 24 14 26 54 8 4 47 148 307 259 167 93 79 32 10
0 0 0 0 18 49 42 76 42 1 34 156 131 44 31 88 124 11 8 2 1 1
0 0 0 0 2 1 0 0 0 12 18 81 100 30 33 41 63 5 27 4 2 0
0 0 0 0 0 0 0 0 0 0 1 27 28 0 1 24 69 51 33 26 9 0
0 0 0 0 0 0 0 0 0 0 0 0 1 7 0 0 7 14 9 0 0 0
0 0 0 0 0 0 0 0 0 0 0 0 0 0 0 0 0 0 2 5 6 0
0 0 0 0 0 0 0 0 0 0 0 0 0 0 0 0 0 0 0 0 0 0
0 0 0 0 0 0 0 0 0 0 0 0 0 0 0 0 0 0 0 0 0 0
0 0 0 0 0 0 0 0 0 0 0 0 0 0 0 0 0 0 0 0 0 0
0 0 0 0 0 0 0 0 0 0 0 0 0 0 0 0 0 0 0 0 0 0
0 0 0 0 0 0 0 0 0 0 0 0 0 0 0 0 0 0 0 0 0 0
0 0 0 0 0 0 0 0 0 0 0 0 0 0 0 0 0 0 0 0 0 0
0 0 0 0 0 0 0 0 0 0 0 0 0 0 0 0 0 0 0 0 0 0
0 0 0 0 0 0 0 0 0 0 0 0 0 0 0 0 0 0 0 0 0 0

GFSNIL_con_mlcape_006.txt.gz
CAPE
0 0 16 167 40 0 28 11 44 53 120 199 290 369 581 526 580 231 56 50 106 102
0 0 25 257 175 117 57 37 62 63 39 240 310 181 457 543 510 317 62 65 83 57
0 0 0 52 29 47 39 6 10 86 239 188 283 382 418 384 448 181 108 40 49 2
0 0 0 0 18 26 0 23 26 12 1 6 61 97 338 217 48 60 9 17 4 2
0 0 0 0 5 26 63 30 54 37 10 0 0 7 47 216 108 158 85 42 10 0
0 0 0 0 0 0 4 39 29 3 14 4 6 2 1 21 86 141 141 136 113 30
0 0 0 0 0 0 0 0 0 0 0 28 4 0 20 248 227 144 142 108 70 71
0 0 0 0 0 0 0 0 0 0 0 0 0 0 0 0 0 1 1 1 0 3
0 0 0 0 0 0 0 0 0 0 0 0 0 0 0 0 0 0 0 0 0 0
0 0 0 0 0 0 0 0 0 0 0 0 0 0 0 0 0 0 0 0 0 0
0 0 0 0 0 0 0 0 0 0 0 0 0 0 0 0 0 0 0 0 0 0
0 0 0 0 0 0 0 0 0 0 0 0 0 0 0 0 0 0 0 0 0 0
0 0 0 0 0 0 0 0 0 0 0 0 0 0 0 0 0 0 0 0 0 0
0 0 0 0 0 0 0 0 0 0 0 0 0 0 0 0 0 0 0 0 0 0

GFSNIL_con_mlcape_009.txt.gz
CAPE
4 154 114 0 0 10 39 169 211 244 352 440 525 557 627 621 599 437 65 87 15 57
2 87 490 394 36 48 245 140 210 230 338 374 436 485 689 545 470 455 292 191 22 45
0 21 63 26 58 165 50 263 167 262 120 273 420 559 757 609 213 10 67 81 37 9
0 0 0 26 89 36 129 64 182 155 221 198 240 483 441 268 201 84 31 12 11 7
0 0 0 0 72 135 143 83 16 81 185 136 207 183 292 275 74 16 22 13 8 2
0 0 0 0 0 114 178 143 48 15 10 34 165 230 235 91 103 40 31 4 3 2
0 0 0 0 0 0 2 73 138 98 32 1 19 154 283 268 222 94 58 48 19 18
0 0 0 0 0 0 0 0 0 13 28 0 37 171 375 357 319 194 165 93 132 155
0 0 0 0 0 0 0 0 0 0 0 0 0 0 0 0 31 79 19 0 0 0
0 0 0 0 0 0 0 0 0 0 0 0 0 0 0 0 0 0 0 0 0 0
0 0 0 0 0 0 0 0 0 0 0 0 0 0 0 0 0 0 0 0 0 0
0 0 0 0 0 0 0 0 0 0 0 0 0 0 0 0 0 0 0 0 0 0
0 0 0 0 0 0 0 0 0 0 0 0 0 0 0 0 0 0 0 0 0 0
0 0 0 0 0 0 0 0 0 0 0 0 0 0 0 0 0 0 0 0 0 0

GFSNIL_con_mlcape_015.txt.gz
CAPE
0 5 0 0 54 12 42 93 145 198 156 171 233 237 103 78 84 79 121 164 38 38
38 33 41 55 47 58 72 119 171 154 176 196 209 188 178 115 84 112 150 90 45 6
34 43 128 78 44 62 18 43 136 241 245 285 205 223 160 94 67 96 64 16 0 2
0 28 66 43 21 50 74 63 114 152 137 148 184 179 135 71 31 22 0 0 1 1
0 14 32 44 14 11 44 100 114 182 153 127 76 57 65 45 31 15 3 0 1 3
0 0 0 38 0 12 36 76 125 127 90 122 101 108 96 77 41 21 6 1 1 2
0 0 0 24 23 11 9 30 56 80 107 102 112 58 59 35 20 5 0 2 1 2
0 0 0 0 22 24 27 32 15 38 91 118 94 76 43 42 29 0 8 1 5 13
0 0 2 0 0 0 0 3 2 19 2 12 14 19 20 17 7 13 4 2 1 0
0 0 0 0 0 0 0 0 0 0 0 0 3 21 30 33 27 35 6 0 0 0
0 0 0 0 0 0 0 0 0 0 0 0 0 0 2 11 6 7 3 0 0 0
0 0 0 0 0 0 0 0 0 0 0 0 0 0 0 0 0 0 0 0 0 0
0 0 0 0 0 0 0 0 0 0 0 0 0 0 0 0 0 0 0 0 0 0
0 0 0 0 0 0 0 0 0 0 0 0 0 0 0 0 0 0 0 0 0 0

GFSNIL_con_mlcape_021.txt.gz
CAPE
0 0 0 18 23 6 25 14 0 48 46 7 15 10 0 0 0 4 5 0 11 9
0 0 33 24 7 27 57 62 20 4 47 59 75 1 0 0 0 0 0 0 0 3
0 10 17 1 13 7 36 44 44 13 17 75 58 4 0 0 0 0 3 0 8 3
0 0 0 0 1 2 43 51 34 15 1 24 43 19 5 0 3 8 0 6 0 0
0 0 0 0 0 2 24 41 52 30 20 18 16 18 7 0 0 0 0 0 1 1
0 0 0 0 0 4 6 12 39 43 37 31 2 0 0 0 3 0 0 1 2 3
0 0 2 0 0 0 12 13 20 18 20 10 2 0 0 0 1 1 0 0 2 1
0 0 2 1 0 0 2 15 35 48 49 41 20 5 4 0 0 1 0 1 1 0
0 0 0 0 0 0 0 18 29 23 40 50 47 24 10 3 8 2 3 3 1 0
0 0 0 0 0 0 0 1 2 17 9 9 0 2 0 1 5 1 2 1 1 4
0 0 0 0 0 0 0 0 0 7 15 11 9 0 0 1 10 7 1 3 3 5
0 0 0 0 0 0 0 0 0 0 0 0 0 0 0 2 1 0 0 0 2 0
0 0 0 0 0 0 0 0 0 0 0 0 0 0 0 0 0 0 0 3 0 0
0 0 0 0 0 0 0 0 0 0 0 0 0 0 0 0 0 0 0 0 0 0

GFSNIL_con_mlcape_024.txt.gz
CAPE
0 0 0 1 0 5 15 1 0 0 0 0 0 0 0 0 0 3 8 20 22 29
0 0 5 0 9 28 40 16 0 10 10 0 0 0 0 0 0 11 12 3 18 24
0 0 1 2 2 14 22 17 8 0 4 12 0 0 0 0 0 14 3 1 12 17
0 0 0 0 0 0 15 2 7 0 0 6 0 0 0 0 1 1 0 0 0 0
0 0 0 0 0 0 0 0 0 0 0 0 0 0 0 0 0 0 0 0 0 0
0 0 0 0 0 0 0 0 0 0 0 0 0 0 2 0 0 1 1 2 0 0
0 0 0 0 0 0 0 0 0 0 0 0 0 0 0 0 0 1 0 1 1 1
0 0 0 0 0 1 4 7 0 0 0 0 0 0 1 2 1 0 1 2 2 1
0 0 0 0 0 0 9 9 26 14 13 8 0 0 0 1 0 0 0 0 0 0
0 0 0 0 0 0 0 13 4 4 21 6 1 0 0 1 1 0 0 0 0 1
0 0 0 0 0 0 0 0 1 6 8 1 0 0 0 0 4 3 2 2 0 0
0 0 0 0 0 0 0 0 0 0 1 3 0 0 0 2 0 1 0 0 0 0
0 0 0 0 0 0 0 0 0 0 0 0 0 0 0 0 1 2 0 0 0 0
0 0 0 0 0 0 0 0 0 0 0 0 0 0 0 1 1 0 0 0 0 0

GFSNIL_con_mlcape_027.txt.gz
CAPE
0 0 27 41 79 108 128 217 233 177 168 174 103 50 131 192 207 180 151 69 15 63
0 27 48 42 86 217 208 216 235 260 218 224 139 49 100 119 136 198 96 151 70 58
0 19 3 43 35 178 237 289 195 293 268 231 129 63 92 83 121 142 244 139 99 134
19 0 0 42 26 151 272 243 207 196 151 181 73 61 88 78 40 41 22 29 54 52
0 0 0 26 43 220 196 188 172 123 145 7 5 12 14 0 3 3 1 3 26 44
0 0 0 17 67 128 156 116 92 59 0 0 1 1 1 1 2 1 4 7 19 39
0 0 0 23 82 66 96 91 66 10 0 0 1 2 3 3 1 8 4 4 26 38
0 0 0 12 62 73 76 77 81 41 5 0 0 0 1 1 4 3 3 5 19 26
0 0 0 3 52 107 69 21 75 51 17 0 0 0 0 1 2 3 3 1 2 1
0 0 0 0 16 64 49 64 29 96 42 5 1 0 0 0 5 7 1 0 2 1
0 0 0 0 0 0 20 31 8 14 17 0 0 0 0 0 4 5 2 2 1 0
0 0 0 0 0 0 3 29 17 17 7 0 0 0 0 1 1 3 4 5 1 0
0 0 0 0 0 0 0 0 4 2 2 0 0 0 0 4 2 2 2 1 0 0
0 0 0 0 0 0 0 0 0 1 3 2 0 0 0 0 8 11 14 11 9 1

GFSNIL_con_mlcape_030.txt.gz
CAPE
362 259 224 296 362 282 431 356 413 446 425 466 452 458 493 549 604 634 505 458 406 372
311 345 254 399 470 523 458 281 405 430 414 421 386 404 515 488 545 597 406 184 8 398
301 248 163 361 304 409 469 237 342 377 439 383 375 374 452 464 553 524 373 444 419 510
270 158 148 275 198 430 439 313 178 285 326 306 368 367 387 365 384 383 507 545 538 344
210 86 181 228 283 351 377 259 95 175 243 199 264 352 334 152 157 232 281 172 136 234
157 108 198 238 362 315 423 285 59 133 241 290 215 245 197 141 125 169 68 94 225 123
91 106 159 205 263 291 293 246 69 68 45 68 96 67 41 80 68 26 133 211 262 297
85 104 139 236 211 139 157 204 98 57 41 29 16 26 23 24 23 56 192 186 169 224
44 74 218 265 191 109 73 153 150 54 33 14 9 0 0 13 10 4 22 78 31 44
42 46 173 204 243 158 109 31 128 118 67 18 1 0 0 0 30 3 51 12 10 15
10 11 166 179 285 329 68 3 8 5 1 5 2 0 0 0 113 18 6 5 4 6
1 0 21 3 38 357 334 157 98 74 1 0 1 0 0 14 45 1 2 29 2 5
0 1 0 0 27 410 299 154 146 44 3 0 0 0 0 3 11 6 3 31 4 0
0 0 0 0 215 367 234 125 66 38 16 1 0 0 0 1 1 1 5 8 13 0

GFSNIL_con_mlcape_033.txt.gz
CAPE
288 219 412 539 696 603 700 516 413 441 458 617 400 240 266 386 664 645 613 688 842 594
227 403 480 496 814 724 595 440 347 402 514 414 305 538 749 812 682 221 260 619 692 445
327 301 225 590 615 645 455 167 246 428 485 302 360 345 550 708 656 517 47 114 180 124
183 147 207 400 415 544 440 74 208 334 359 316 337 401 712 601 500 287 317 197 281 208
160 81 293 198 434 471 375 79 45 190 114 113 258 426 441 374 364 402 381 522 390 251
134 349 234 243 317 449 366 64 45 153 180 112 127 234 225 193 237 272 104 90 357 142
289 302 232 253 274 275 266 231 35 198 140 164 172 111 119 204 172 78 154 278 285 112
381 332 224 165 202 281 334 139 89 34 112 76 79 47 60 43 20 72 148 285 206 156
120 160 207 190 241 252 277 182 102 16 1 52 44 0 0 31 81 134 157 200 209 46
88 157 194 265 209 58 181 196 98 91 46 127 0 0 0 1 103 78 157 85 93 69
107 115 132 204 344 234 9 32 21 21 75 83 0 0 0 1 84 148 108 31 19 3
52 177 153 246 324 441 187 114 64 10 0 47 1 0 0 0 89 86 54 63 9 2
49 27 89 79 390 577 351 299 147 93 2 0 3 0 0 0 21 67 1 0 0 0
8 24 102 51 353 282 278 193 63 4 2 1 14 1 0 0 38 28 12 6 2 0

GFSNIL_con_mlcape_036.txt.gz
CAPE
441 419 520 552 579 367 347 411 381 364 303 470 444 308 153 97 303 237 339 175 447 297
341 480 553 445 860 361 607 524 232 299 292 327 140 177 191 222 285 212 188 132 158 462
94 181 229 125 680 563 53 202 137 345 401 264 194 233 149 175 383 8 69 159 40 40
172 184 244 129 485 456 74 72 242 400 399 245 217 360 309 200 302 54 51 22 61 49
102 234 237 207 403 518 261 77 71 141 53 196 268 325 313 375 165 248 133 57 32 83
205 242 171 201 259 344 293 113 41 59 42 47 231 221 274 192 236 208 138 42 98 69
313 275 135 180 179 286 306 139 44 28 74 37 50 76 139 257 135 74 62 144 59 76
542 166 174 87 20 108 207 102 39 49 123 142 53 18 79 72 39 112 150 111 53 34
361 139 89 148 240 158 135 51 51 46 0 70 0 0 1 29 8 55 136 93 24 15
176 170 88 100 154 165 69 39 14 9 22 11 0 0 0 0 115 71 67 83 85 26
279 294 286 224 266 12 83 42 80 47 72 0 0 0 0 0 66 57 13 35 11 21
323 199 370 240 479 45 54 56 41 32 33 0 0 0 0 0 35 14 20 0 1 1
354 193 210 286 150 259 65 88 26 1 18 2 0 0 0 0 26 0 1 0 0 0
160 481 372 322 107 345 144 55 34 4 0 30 0 0 0 0 28 1 0 0 0 0

GFSNIL_con_mlcape_042.txt.gz
CAPE
102 75 106 38 77 96 56 8 13 34 14 2 24 7 0 0 1 7 28 94 106 74
76 6 79 80 98 85 20 0 18 0 0 0 2 2 0 0 0 54 52 56 58 60
26 165 111 67 47 11 28 12 0 1 0 2 0 0 0 0 26 34 29 41 33 32
10 17 0 11 50 15 8 0 0 1 4 1 12 0 5 0 0 1 12 9 4 5
0 0 9 68 75 0 0 0 13 56 1 0 1 58 0 4 0 0 7 11 0 0
4 24 5 18 51 0 0 4 21 12 7 10 23 61 54 28 4 15 26 33 24 2
0 0 6 0 0 0 0 34 30 19 67 15 31 63 56 22 5 22 8 21 20 17
3 0 0 0 0 21 13 44 30 26 20 13 26 25 23 3 4 4 7 20 29 21
1 0 0 0 3 4 12 27 21 15 3 0 0 0 0 4 37 26 2 5 7 3
6 1 0 0 6 0 12 9 0 0 0 0 0 0 0 1 0 0 3 3 1 2
76 1 11 0 0 2 0 0 0 0 0 0 0 0 0 4 0 0 12 0 0 0
82 25 24 0 0 0 0 1 1 0 0 0 0 0 6 4 8 4 3 2 1 0
91 61 28 0 0 0 10 22 15 0 0 0 0 0 6 4 1 0 0 0 0 0
157 107 90 13 0 0 7 10 5 0 0 0 0 0 0 1 0 0 0 0 0 0

GFSNIL_con_mlcape_045.txt.gz
CAPE
95 94 86 80 79 66 31 3 0 23 19 0 0 0 0 0 0 0 0 0 1 10
18 47 46 27 38 15 3 0 0 0 0 0 0 0 0 0 0 0 1 31 50 61
0 8 22 21 21 3 0 0 0 0 0 0 0 0 0 0 0 11 16 24 42 35
35 24 6 0 1 0 0 0 0 0 0 0 0 0 0 0 0 0 4 11 13 28
9 0 0 3 0 0 0 0 0 0 0 0 0 0 2 0 0 0 11 6 2 8
0 0 0 0 0 0 0 0 0 0 1 0 0 19 15 15 1 2 16 14 10 1
0 3 0 0 0 0 0 0 1 1 18 10 3 24 6 12 11 19 15 40 22 13
2 0 0 0 0 0 1 11 23 29 32 14 11 11 9 6 0 2 18 26 13 14
12 0 0 0 0 0 0 14 19 20 14 7 0 0 0 0 0 0 11 10 2 2
20 0 0 0 0 0 0 5 1 10 2 0 0 0 0 0 0 0 3 10 4 6
33 13 0 0 0 0 0 1 0 0 0 0 0 0 0 0 0 0 0 1 4 6
59 35 9 0 0 0 0 1 0 0 0 0 0 0 0 1 6 2 1 1 1 0
81 49 21 0 0 0 0 8 0 0 0 0 0 0 2 9 8 2 0 0 0 0
65 42 16 0 0 0 11 11 0 0 0 0 0 0 1 4 0 0 1 0 0 0